Chrysopouli, Greece

1:10 PM EET on January 22, 2018 (GMT +0200)
Megas Alexandros

Weather History for LGKV - November, 2012

Change the Weather History Date:

Saturday, November 10, 2012

  Actual Average Record
Temperature  
Mean Temperature 53 °F -  
Max Temperature 62 °F 59 °F 71 °F (2001)
Min Temperature 44 °F 44 °F 41 °F (1998)
Degree Days  
Heating Degree Days 12    
Growing Degree Days 3 (Base 50)    
Moisture  
Dew Point 42 °F    
Average Humidity 63    
Maximum Humidity 87    
Minimum Humidity 45    
Precipitation  
Precipitation 0.00 in - - ()
Sea Level Pressure  
Sea Level Pressure 30.12 in    
Wind  
Wind Speed 5 mph ()    
Max Wind Speed 9 mph    
Max Gust Speed -    
Visibility 6.2 miles    
Events      
Averages and records for this station are not official NWS values.
T = Trace of Precipitation, MM = Missing Value Source: Averaged Metar Reports

Daily Weather History Graph

Daily Weather History Graph

Search for Another Location

Airport or City:

Trip Planner

Search our weather history database for the weather conditions in past years. The results will help you decide how hot, cold, wet, or windy it might be!

Date:

Astronomy

Nov. 10, 2012 Rise Set
Actual Time 7:03 AM EET 5:07 PM EET
Civil Twilight 6:34 AM EET 5:36 PM EET
Nautical Twilight 6:01 AM EET 6:09 PM EET
Astronomical Twilight 5:28 AM EET 6:41 PM EET
Moon 2:45 AM EET (11/10) 2:44 PM EET (11/10)
Length of Visible Light 11h 02m
Length of Day
10h 03m
Waning Crescent, 17% of the Moon is Illuminated
Nov 10
Waning Crescent
Nov 14
New
Nov 20
First Quarter
Nov 28
Full
Dec 6
Last Quarter

Hourly Weather History & Observations

Time (EET) Temp. Windchill Dew Point Humidity Pressure Visibility Wind Dir Wind Speed Gust Speed Precip Events Conditions
5:20 AM 48.2 °F - 42.8 °F 82% 30.04 in 6.2 mi Calm Calm - N/A   Partly Cloudy
5:50 AM 46.4 °F 44.3 °F 41.0 °F 81% 30.04 in 6.2 mi East 4.6 mph - N/A   Partly Cloudy
6:20 AM 46.4 °F 44.3 °F 41.0 °F 81% 30.04 in 6.2 mi NNE 4.6 mph - N/A   Partly Cloudy
6:50 AM 44.6 °F 42.2 °F 41.0 °F 87% 30.06 in 6.2 mi East 4.6 mph - N/A   Partly Cloudy
7:20 AM 44.6 °F 42.2 °F 41.0 °F 87% 30.06 in 6.2 mi ENE 4.6 mph - N/A   Partly Cloudy
7:50 AM 44.6 °F 42.2 °F 41.0 °F 87% 30.09 in 6.2 mi ENE 4.6 mph - N/A   Partly Cloudy
8:20 AM 48.2 °F - 42.8 °F 82% 30.09 in 6.2 mi East 4.6 mph - N/A   Partly Cloudy
8:50 AM 51.8 °F - 44.6 °F 76% 30.12 in 6.2 mi East 4.6 mph - N/A   Partly Cloudy
9:20 AM 53.6 °F - 46.4 °F 77% 30.12 in 6.2 mi East 5.8 mph - N/A   Partly Cloudy
9:50 AM 57.2 °F - 42.8 °F 59% 30.12 in 6.2 mi East 4.6 mph - N/A   Scattered Clouds
10:20 AM 57.2 °F - 42.8 °F 59% 30.12 in 6.2 mi East 5.8 mph - N/A   Scattered Clouds
10:50 AM 57.2 °F - 42.8 °F 59% 30.12 in 6.2 mi South 8.1 mph - N/A   Scattered Clouds
11:20 AM 59.0 °F - 42.8 °F 55% 30.12 in 6.2 mi SSE 4.6 mph - N/A   Scattered Clouds
11:50 AM 60.8 °F - 42.8 °F 52% 30.12 in 6.2 mi South 6.9 mph - N/A   Scattered Clouds
12:20 PM 62.6 °F - 42.8 °F 48% 30.12 in 6.2 mi South 6.9 mph - N/A   Scattered Clouds
12:50 PM 62.6 °F - 42.8 °F 48% 30.12 in 6.2 mi SW 6.9 mph - N/A   Scattered Clouds
1:20 PM 62.6 °F - 42.8 °F 48% 30.12 in 6.2 mi SW 6.9 mph - N/A   Scattered Clouds
1:50 PM 62.6 °F - 42.8 °F 48% 30.12 in 6.2 mi South 6.9 mph - N/A   Scattered Clouds
2:20 PM 62.6 °F - 42.8 °F 48% 30.12 in 6.2 mi South 6.9 mph - N/A   Scattered Clouds
2:50 PM 62.6 °F - 41.0 °F 45% 30.12 in 6.2 mi SSW 6.9 mph - N/A   Scattered Clouds
3:20 PM 62.6 °F - 41.0 °F 45% 30.12 in 6.2 mi SSW 4.6 mph - N/A   Scattered Clouds
3:50 PM 60.8 °F - 41.0 °F 48% 30.12 in 6.2 mi SSW 4.6 mph - N/A   Scattered Clouds
4:20 PM 60.8 °F - 41.0 °F 48% 30.12 in 6.2 mi SSW 4.6 mph - N/A   Scattered Clouds
4:50 PM 60.8 °F - 44.6 °F 55% 30.15 in 6.2 mi ESE 5.8 mph - N/A   Scattered Clouds
5:20 PM 59.0 °F - 42.8 °F 55% 30.15 in 6.2 mi East 8.1 mph - N/A   Scattered Clouds
5:50 PM 55.4 °F - 42.8 °F 63% 30.18 in 6.2 mi ENE 9.2 mph - N/A   Scattered Clouds
6:20 PM 53.6 °F - 42.8 °F 67% 30.18 in 6.2 mi NE 9.2 mph - N/A   Scattered Clouds
6:50 PM 53.6 °F - 41.0 °F 62% 30.21 in 6.2 mi ENE 6.9 mph - N/A   Scattered Clouds
7:20 PM 51.8 °F - 41.0 °F 67% 30.21 in 6.2 mi ENE 8.1 mph - N/A   Scattered Clouds
7:50 PM 51.8 °F - 41.0 °F 67% 30.21 in 6.2 mi NE 8.1 mph - N/A   Scattered Clouds